{"data":{"norad_id":55810,"epoch":"2026-05-25T03:51:09.232128Z","epoch_age_seconds":57092,"freshness":"FRESH","line1":"1 55810U 23029Q   26145.16052352  .00000052  00000+0  97133-4 0  9990","line2":"2 55810  87.9150 309.5664 0001509  92.8091 267.3214 13.19725847155854","mean_motion":13.19725847,"eccentricity":0.0001509,"inclination_deg":87.915,"raan_deg":309.5664,"arg_perigee_deg":92.8091,"mean_anomaly_deg":267.3214,"bstar":9.7133e-5,"rev_number":15585,"period_min":109.11357107034,"perigee_km":1184.6259224925,"apogee_km":1186.9087088149,"semimajor_km":7563.9043156537,"source":"CELESTRAK","updated_at":"2026-05-25T13:38:22.693115Z"}}